Location: Bayshore Village Mobile Home Park
(26.6945°N, 81.8642°W)
Time: 15:13:35
(UTC+00:00)

Meteor 1-28 Rocket - Pass Details

Date: 17 June 2021
Orbit: 502 x 523 km, 97.4° (Epoch: 26 July)

Event Time Altitude Azimuth Distance (km) Brightness Sun altitude
Exits shadow 08:18:23 39° 348° (NNW) 791 4.3 -25.2°
Drops below altitude 10° 08:20:50 10° 349° (NNW) 1,757 6.3 -24.9°
Sets 08:22:57 0° 349° (N) 2,649 7.3 -24.5°
